Year,Month,Day,Hour,Minute,Value (Times are PST for barometer in hPa)
2018,12,12,00,00,980.73
2018,12,12,00,01,980.77
2018,12,12,00,02,980.80
2018,12,12,00,03,980.83
2018,12,12,00,04,980.80
2018,12,12,00,05,980.80
2018,12,12,00,06,980.80
2018,12,12,00,07,980.77
2018,12,12,00,08,980.77
2018,12,12,00,09,980.77
2018,12,12,00,10,980.80
2018,12,12,00,11,980.80
2018,12,12,00,12,980.80
2018,12,12,00,13,980.80
2018,12,12,00,14,980.80
2018,12,12,00,15,980.80
2018,12,12,00,16,980.83
2018,12,12,00,17,980.83
2018,12,12,00,18,980.87
2018,12,12,00,19,980.90
2018,12,12,00,20,980.94
2018,12,12,00,21,980.90
2018,12,12,00,22,980.94
2018,12,12,00,23,980.94
2018,12,12,00,24,980.97
2018,12,12,00,25,980.94
2018,12,12,00,26,980.97
2018,12,12,00,27,981.00
2018,12,12,00,28,981.04
2018,12,12,00,29,981.00
2018,12,12,00,30,981.00
2018,12,12,00,31,981.00
2018,12,12,00,32,981.00
2018,12,12,00,33,981.00
2018,12,12,00,34,981.00
2018,12,12,00,35,981.04
2018,12,12,00,36,981.00
2018,12,12,00,37,980.97
2018,12,12,00,38,981.04
2018,12,12,00,39,981.00
2018,12,12,00,40,981.04
2018,12,12,00,41,981.04
2018,12,12,00,42,981.10
2018,12,12,00,43,981.07
2018,12,12,00,44,981.07
2018,12,12,00,45,981.07
2018,12,12,00,46,981.10
2018,12,12,00,47,981.14
2018,12,12,00,48,981.17
2018,12,12,00,49,981.17
2018,12,12,00,50,981.21
2018,12,12,00,51,981.17
2018,12,12,00,52,981.21
2018,12,12,00,53,981.21
2018,12,12,00,54,981.24
2018,12,12,00,55,981.24
2018,12,12,00,56,981.24
2018,12,12,00,57,981.24
2018,12,12,00,58,981.27
2018,12,12,00,59,981.27
2018,12,12,01,00,981.27
2018,12,12,01,01,981.24
2018,12,12,01,02,981.31
2018,12,12,01,03,981.31
2018,12,12,01,04,981.34
2018,12,12,01,05,981.31
2018,12,12,01,06,981.31
2018,12,12,01,07,981.34
2018,12,12,01,08,981.34
2018,12,12,01,09,981.34
2018,12,12,01,10,981.34
2018,12,12,01,11,981.34
2018,12,12,01,12,981.38
2018,12,12,01,13,981.38
2018,12,12,01,14,981.41
2018,12,12,01,15,981.48
2018,12,12,01,16,981.48
2018,12,12,01,17,981.48
2018,12,12,01,18,981.48
2018,12,12,01,19,981.48
2018,12,12,01,20,981.51
2018,12,12,01,21,981.51
2018,12,12,01,22,981.51
2018,12,12,01,23,981.55
2018,12,12,01,24,981.55
2018,12,12,01,25,981.55
2018,12,12,01,26,981.58
2018,12,12,01,27,981.58
2018,12,12,01,28,981.58
2018,12,12,01,29,981.58
2018,12,12,01,30,981.58
2018,12,12,01,31,981.58
2018,12,12,01,32,981.55
2018,12,12,01,33,981.61
2018,12,12,01,34,981.55
2018,12,12,01,35,981.58
2018,12,12,01,36,981.58
2018,12,12,01,37,981.61
2018,12,12,01,38,981.61
2018,12,12,01,39,981.68
2018,12,12,01,40,981.65
2018,12,12,01,41,981.61
2018,12,12,01,42,981.61
2018,12,12,01,43,981.61
2018,12,12,01,44,981.61
2018,12,12,01,45,981.61
2018,12,12,01,46,981.58
2018,12,12,01,47,981.61
2018,12,12,01,48,981.68
2018,12,12,01,49,981.68
2018,12,12,01,50,981.71
2018,12,12,01,51,981.71
2018,12,12,01,52,981.71
2018,12,12,01,53,981.71
2018,12,12,01,54,981.71
2018,12,12,01,55,981.75
2018,12,12,01,56,981.78
2018,12,12,01,57,981.78
2018,12,12,01,58,981.82
2018,12,12,01,59,981.78
2018,12,12,02,00,981.78
2018,12,12,02,01,981.78
2018,12,12,02,02,981.78
2018,12,12,02,03,981.78
2018,12,12,02,04,981.85
2018,12,12,02,05,981.85
2018,12,12,02,06,981.85
2018,12,12,02,07,981.85
2018,12,12,02,08,981.88
2018,12,12,02,09,981.88
2018,12,12,02,10,981.85
2018,12,12,02,11,981.85
2018,12,12,02,12,981.88
2018,12,12,02,13,981.85
2018,12,12,02,14,981.88
2018,12,12,02,15,981.88
2018,12,12,02,16,981.88
2018,12,12,02,17,981.95
2018,12,12,02,18,981.95
2018,12,12,02,19,981.95
2018,12,12,02,20,981.95
2018,12,12,02,21,981.99
2018,12,12,02,22,982.02
2018,12,12,02,23,982.05
2018,12,12,02,24,982.02
2018,12,12,02,25,982.05
2018,12,12,02,26,982.12
2018,12,12,02,27,982.12
2018,12,12,02,28,982.09
2018,12,12,02,29,982.09
2018,12,12,02,30,982.09
2018,12,12,02,31,982.12
2018,12,12,02,32,982.09
2018,12,12,02,33,982.12
2018,12,12,02,34,982.22
2018,12,12,02,35,982.15
2018,12,12,02,36,982.22
2018,12,12,02,37,982.22
2018,12,12,02,38,982.26
2018,12,12,02,39,982.32
2018,12,12,02,40,982.36
2018,12,12,02,41,982.32
2018,12,12,02,42,982.36
2018,12,12,02,43,982.39
2018,12,12,02,44,982.39
2018,12,12,02,45,982.43
2018,12,12,02,46,982.49
2018,12,12,02,47,982.49
2018,12,12,02,48,982.46
2018,12,12,02,49,982.43
2018,12,12,02,50,982.46
2018,12,12,02,51,982.46
2018,12,12,02,52,982.43
2018,12,12,02,53,982.43
2018,12,12,02,54,982.46
2018,12,12,02,55,982.43
2018,12,12,02,56,982.46
2018,12,12,02,57,982.46
2018,12,12,02,58,982.46
2018,12,12,02,59,982.53
2018,12,12,03,00,982.53
2018,12,12,03,01,982.53
2018,12,12,03,02,982.56
2018,12,12,03,03,982.56
2018,12,12,03,04,982.56
2018,12,12,03,05,982.59
2018,12,12,03,06,982.59
2018,12,12,03,07,982.63
2018,12,12,03,08,982.59
2018,12,12,03,09,982.59
2018,12,12,03,10,982.56
2018,12,12,03,11,982.56
2018,12,12,03,12,982.59
2018,12,12,03,13,982.53
2018,12,12,03,14,982.56
2018,12,12,03,15,982.53
2018,12,12,03,16,982.49
2018,12,12,03,17,982.53
2018,12,12,03,18,982.56
2018,12,12,03,19,982.56
2018,12,12,03,20,982.49
2018,12,12,03,21,982.49
2018,12,12,03,22,982.56
2018,12,12,03,23,982.59
2018,12,12,03,24,982.56
2018,12,12,03,25,982.59
2018,12,12,03,26,982.59
2018,12,12,03,27,982.56
2018,12,12,03,28,982.63
2018,12,12,03,29,982.59
2018,12,12,03,30,982.63
2018,12,12,03,31,982.63
2018,12,12,03,32,982.66
2018,12,12,03,33,982.63
2018,12,12,03,34,982.63
2018,12,12,03,35,982.66
2018,12,12,03,36,982.70
2018,12,12,03,37,982.73
2018,12,12,03,38,982.73
2018,12,12,03,39,982.73
2018,12,12,03,40,982.73
2018,12,12,03,41,982.73
2018,12,12,03,42,982.80
2018,12,12,03,43,982.76
2018,12,12,03,44,982.76
2018,12,12,03,45,982.80
2018,12,12,03,46,982.80
2018,12,12,03,47,982.80
2018,12,12,03,48,982.80
2018,12,12,03,49,982.76
2018,12,12,03,50,982.80
2018,12,12,03,51,982.80
2018,12,12,03,52,982.76
2018,12,12,03,53,982.80
2018,12,12,03,54,982.80
2018,12,12,03,55,982.83
2018,12,12,03,56,982.87
2018,12,12,03,57,982.87
2018,12,12,03,58,982.90
2018,12,12,03,59,982.87
2018,12,12,04,00,982.90
2018,12,12,04,01,982.87
2018,12,12,04,02,982.90
2018,12,12,04,03,982.93
2018,12,12,04,04,982.90
2018,12,12,04,05,982.93
2018,12,12,04,06,982.93
2018,12,12,04,07,982.93
2018,12,12,04,08,983.00
2018,12,12,04,09,983.00
2018,12,12,04,10,983.00
2018,12,12,04,11,983.04
2018,12,12,04,12,983.04
2018,12,12,04,13,983.04
2018,12,12,04,14,983.10
2018,12,12,04,15,983.07
2018,12,12,04,16,983.10
2018,12,12,04,17,983.10
2018,12,12,04,18,983.10
2018,12,12,04,19,983.14
2018,12,12,04,20,983.10
2018,12,12,04,21,983.17
2018,12,12,04,22,983.20
2018,12,12,04,23,983.20
2018,12,12,04,24,983.20
2018,12,12,04,25,983.20
2018,12,12,04,26,983.20
2018,12,12,04,27,983.20
2018,12,12,04,28,983.17
2018,12,12,04,29,983.20
2018,12,12,04,30,983.14
2018,12,12,04,31,983.14
2018,12,12,04,32,983.14
2018,12,12,04,33,983.14
2018,12,12,04,34,983.14
2018,12,12,04,35,983.17
2018,12,12,04,36,983.14
2018,12,12,04,37,983.10
2018,12,12,04,38,983.10
2018,12,12,04,39,983.10
2018,12,12,04,40,983.17
2018,12,12,04,41,983.10
2018,12,12,04,42,983.14
2018,12,12,04,43,983.17
2018,12,12,04,44,983.20
2018,12,12,04,45,983.20
2018,12,12,04,46,983.17
2018,12,12,04,47,983.27
2018,12,12,04,48,983.24
2018,12,12,04,49,983.20
2018,12,12,04,50,983.24
2018,12,12,04,51,983.24
2018,12,12,04,52,983.27
2018,12,12,04,53,983.27
2018,12,12,04,54,983.27
2018,12,12,04,55,983.24
2018,12,12,04,56,983.31
2018,12,12,04,57,983.31
2018,12,12,04,58,983.34
2018,12,12,04,59,983.34
2018,12,12,05,00,983.34
2018,12,12,05,01,983.41
2018,12,12,05,02,983.41
2018,12,12,05,03,983.41
2018,12,12,05,04,983.44
2018,12,12,05,05,983.44
2018,12,12,05,06,983.44
2018,12,12,05,07,983.48
2018,12,12,05,08,983.48
2018,12,12,05,09,983.48
2018,12,12,05,10,983.48
2018,12,12,05,11,983.54
2018,12,12,05,12,983.51
2018,12,12,05,13,983.54
2018,12,12,05,14,983.54
2018,12,12,05,15,983.54
2018,12,12,05,16,983.58
2018,12,12,05,17,983.58
2018,12,12,05,18,983.58
2018,12,12,05,19,983.54
2018,12,12,05,20,983.61
2018,12,12,05,21,983.58
2018,12,12,05,22,983.61
2018,12,12,05,23,983.64
2018,12,12,05,24,983.64
2018,12,12,05,25,983.64
2018,12,12,05,26,983.68
2018,12,12,05,27,983.64
2018,12,12,05,28,983.68
2018,12,12,05,29,983.64
2018,12,12,05,30,983.68
2018,12,12,05,31,983.71
2018,12,12,05,32,983.71
2018,12,12,05,33,983.71
2018,12,12,05,34,983.75
2018,12,12,05,35,983.71
2018,12,12,05,36,983.71
2018,12,12,05,37,983.71
2018,12,12,05,38,983.75
2018,12,12,05,39,983.75
2018,12,12,05,40,983.71
2018,12,12,05,41,983.81
2018,12,12,05,42,983.78
2018,12,12,05,43,983.78
2018,12,12,05,44,983.75
2018,12,12,05,45,983.81
2018,12,12,05,46,983.85
2018,12,12,05,47,983.85
2018,12,12,05,48,983.81
2018,12,12,05,49,983.81
2018,12,12,05,50,983.81
2018,12,12,05,51,983.78
2018,12,12,05,52,983.81
2018,12,12,05,53,983.85
2018,12,12,05,54,983.85
2018,12,12,05,55,983.85
2018,12,12,05,56,983.78
2018,12,12,05,57,983.85
2018,12,12,05,58,983.88
2018,12,12,05,59,983.85
2018,12,12,06,00,983.88
2018,12,12,06,01,983.88
2018,12,12,06,02,983.92
2018,12,12,06,03,983.92
2018,12,12,06,04,983.92
2018,12,12,06,05,983.95
2018,12,12,06,06,983.95
2018,12,12,06,07,983.95
2018,12,12,06,08,983.95
2018,12,12,06,09,983.95
2018,12,12,06,10,983.98
2018,12,12,06,11,984.02
2018,12,12,06,12,984.05
2018,12,12,06,13,984.12
2018,12,12,06,14,984.08
2018,12,12,06,15,984.05
2018,12,12,06,16,984.05
2018,12,12,06,17,984.08
2018,12,12,06,18,984.19
2018,12,12,06,19,984.19
2018,12,12,06,20,984.19
2018,12,12,06,21,984.12
2018,12,12,06,22,984.12
2018,12,12,06,23,984.12
2018,12,12,06,24,984.12
2018,12,12,06,25,984.12
2018,12,12,06,26,984.12
2018,12,12,06,27,984.15
2018,12,12,06,28,984.15
2018,12,12,06,29,984.15
2018,12,12,06,30,984.15
2018,12,12,06,31,984.25
2018,12,12,06,32,984.25
2018,12,12,06,33,984.29
2018,12,12,06,34,984.29
2018,12,12,06,35,984.25
2018,12,12,06,36,984.32
2018,12,12,06,37,984.32
2018,12,12,06,38,984.32
2018,12,12,06,39,984.36
2018,12,12,06,40,984.39
2018,12,12,06,41,984.39
2018,12,12,06,42,984.36
2018,12,12,06,43,984.39
2018,12,12,06,44,984.42
2018,12,12,06,45,984.42
2018,12,12,06,46,984.46
2018,12,12,06,47,984.42
2018,12,12,06,48,984.49
2018,12,12,06,49,984.46
2018,12,12,06,50,984.46
2018,12,12,06,51,984.49
2018,12,12,06,52,984.49
2018,12,12,06,53,984.49
2018,12,12,06,54,984.49
2018,12,12,06,55,984.53
2018,12,12,06,56,984.53
2018,12,12,06,57,984.56
2018,12,12,06,58,984.56
2018,12,12,06,59,984.59
2018,12,12,07,00,984.59
2018,12,12,07,01,984.63
2018,12,12,07,02,984.63
2018,12,12,07,03,984.63
2018,12,12,07,04,984.63
2018,12,12,07,05,984.66
2018,12,12,07,06,984.66
2018,12,12,07,07,984.69
2018,12,12,07,08,984.69
2018,12,12,07,09,984.69
2018,12,12,07,10,984.69
2018,12,12,07,11,984.73
2018,12,12,07,12,984.73
2018,12,12,07,13,984.69
2018,12,12,07,14,984.73
2018,12,12,07,15,984.69
2018,12,12,07,16,984.69
2018,12,12,07,17,984.69
2018,12,12,07,18,984.76
2018,12,12,07,19,984.76
2018,12,12,07,20,984.83
2018,12,12,07,21,984.80
2018,12,12,07,22,984.80
2018,12,12,07,23,984.83
2018,12,12,07,24,984.86
2018,12,12,07,25,984.93
2018,12,12,07,26,984.93
2018,12,12,07,27,984.97
2018,12,12,07,28,985.00
2018,12,12,07,29,985.00
2018,12,12,07,30,985.03
2018,12,12,07,31,984.97
2018,12,12,07,32,984.93
2018,12,12,07,33,984.97
2018,12,12,07,34,984.93
2018,12,12,07,35,984.97
2018,12,12,07,36,984.97
2018,12,12,07,37,984.97
2018,12,12,07,38,984.97
2018,12,12,07,39,984.93
2018,12,12,07,40,984.97
2018,12,12,07,41,985.03
2018,12,12,07,42,984.97
2018,12,12,07,43,984.97
2018,12,12,07,44,985.00
2018,12,12,07,45,984.93
2018,12,12,07,46,985.00
2018,12,12,07,47,985.00
2018,12,12,07,48,985.00
2018,12,12,07,49,985.03
2018,12,12,07,50,985.07
2018,12,12,07,51,985.10
2018,12,12,07,52,985.13
2018,12,12,07,53,985.13
2018,12,12,07,54,985.13
2018,12,12,07,55,985.13
2018,12,12,07,56,985.13
2018,12,12,07,57,985.13
2018,12,12,07,58,985.13
2018,12,12,07,59,985.20
2018,12,12,08,00,985.17
2018,12,12,08,01,985.00
2018,12,12,08,02,985.03
2018,12,12,08,03,985.20
2018,12,12,08,04,985.17
2018,12,12,08,05,985.17
2018,12,12,08,06,985.20
2018,12,12,08,07,985.24
2018,12,12,08,08,985.27
2018,12,12,08,09,985.30
2018,12,12,08,10,985.30
2018,12,12,08,11,985.27
2018,12,12,08,12,985.30
2018,12,12,08,13,985.24
2018,12,12,08,14,985.27
2018,12,12,08,15,985.34
2018,12,12,08,16,985.24
2018,12,12,08,17,985.27
2018,12,12,08,18,985.30
2018,12,12,08,19,985.34
2018,12,12,08,20,985.34
2018,12,12,08,21,985.34
2018,12,12,08,22,985.37
2018,12,12,08,23,985.41
2018,12,12,08,24,985.37
2018,12,12,08,25,985.41
2018,12,12,08,26,985.44
2018,12,12,08,27,985.44
2018,12,12,08,28,985.51
2018,12,12,08,29,985.51
2018,12,12,08,30,985.51
2018,12,12,08,31,985.54
2018,12,12,08,32,985.57
2018,12,12,08,33,985.54
2018,12,12,08,34,985.61
2018,12,12,08,35,985.61
2018,12,12,08,36,985.71
2018,12,12,08,37,985.71
2018,12,12,08,38,985.68
2018,12,12,08,39,985.64
2018,12,12,08,40,985.78
2018,12,12,08,41,985.68
2018,12,12,08,42,985.71
2018,12,12,08,43,985.74
2018,12,12,08,44,985.78
2018,12,12,08,45,985.71
2018,12,12,08,46,985.74
2018,12,12,08,47,985.74
2018,12,12,08,48,985.78
2018,12,12,08,49,985.74
2018,12,12,08,50,985.74
2018,12,12,08,51,985.78
2018,12,12,08,52,985.88
2018,12,12,08,53,985.88
2018,12,12,08,54,985.88
2018,12,12,08,55,985.91
2018,12,12,08,56,985.91
2018,12,12,08,57,985.98
2018,12,12,08,58,985.95
2018,12,12,08,59,986.05
2018,12,12,09,00,986.05
2018,12,12,09,01,986.02
2018,12,12,09,02,986.05
2018,12,12,09,03,986.02
2018,12,12,09,04,986.05
2018,12,12,09,05,986.02
2018,12,12,09,06,986.08
2018,12,12,09,07,986.08
2018,12,12,09,08,986.15
2018,12,12,09,09,986.15
2018,12,12,09,10,986.12
2018,12,12,09,11,986.12
2018,12,12,09,12,986.12
2018,12,12,09,13,986.12
2018,12,12,09,14,986.15
2018,12,12,09,15,986.18
2018,12,12,09,16,986.15
2018,12,12,09,17,986.18
2018,12,12,09,18,986.18
2018,12,12,09,19,986.18
2018,12,12,09,20,986.15
2018,12,12,09,21,986.15
2018,12,12,09,22,986.18
2018,12,12,09,23,986.15
2018,12,12,09,24,986.18
2018,12,12,09,25,986.29
2018,12,12,09,26,986.32
2018,12,12,09,27,986.32
2018,12,12,09,28,986.29
2018,12,12,09,29,986.32
2018,12,12,09,30,986.35
2018,12,12,09,31,986.35
2018,12,12,09,32,986.39
2018,12,12,09,33,986.46
2018,12,12,09,34,986.42
2018,12,12,09,35,986.46
2018,12,12,09,36,986.46
2018,12,12,09,37,986.46
2018,12,12,09,38,986.52
2018,12,12,09,39,986.49
2018,12,12,09,40,986.49
2018,12,12,09,41,986.52
2018,12,12,09,42,986.56
2018,12,12,09,43,986.62
2018,12,12,09,44,986.62
2018,12,12,09,45,986.62
2018,12,12,09,46,986.66
2018,12,12,09,47,986.62
2018,12,12,09,48,986.62
2018,12,12,09,49,986.62
2018,12,12,09,50,986.62
2018,12,12,09,51,986.69
2018,12,12,09,52,986.62
2018,12,12,09,53,986.73
2018,12,12,09,54,986.83
2018,12,12,09,55,986.76
2018,12,12,09,56,986.76
2018,12,12,09,57,986.73
2018,12,12,09,58,986.76
2018,12,12,09,59,986.76
2018,12,12,10,00,986.79
2018,12,12,10,01,986.79
2018,12,12,10,02,986.86
2018,12,12,10,03,986.83
2018,12,12,10,04,986.86
2018,12,12,10,05,986.83
2018,12,12,10,06,986.79
2018,12,12,10,07,986.83
2018,12,12,10,08,986.79
2018,12,12,10,09,986.79
2018,12,12,10,10,986.83
2018,12,12,10,11,986.83
2018,12,12,10,12,986.83
2018,12,12,10,13,986.86
2018,12,12,10,14,986.83
2018,12,12,10,15,986.93
2018,12,12,10,16,986.79
2018,12,12,10,17,986.79
2018,12,12,10,18,986.86
2018,12,12,10,19,986.90
2018,12,12,10,20,986.86
2018,12,12,10,21,986.90
2018,12,12,10,22,986.86
2018,12,12,10,23,986.86
2018,12,12,10,24,986.86
2018,12,12,10,25,986.93
2018,12,12,10,26,986.93
2018,12,12,10,27,986.93
2018,12,12,10,28,986.96
2018,12,12,10,29,986.96
2018,12,12,10,30,987.06
2018,12,12,10,31,987.13
2018,12,12,10,32,987.06
2018,12,12,10,33,987.13
2018,12,12,10,34,987.13
2018,12,12,10,35,987.13
2018,12,12,10,36,987.13
2018,12,12,10,37,987.13
2018,12,12,10,38,987.17
2018,12,12,10,39,987.20
2018,12,12,10,40,987.20
2018,12,12,10,41,987.17
2018,12,12,10,42,987.17
2018,12,12,10,43,987.17
2018,12,12,10,44,987.20
2018,12,12,10,45,987.20
2018,12,12,10,46,987.20
2018,12,12,10,47,987.27
2018,12,12,10,48,987.30
2018,12,12,10,49,987.40
2018,12,12,10,50,987.44
2018,12,12,10,51,987.44
2018,12,12,10,52,987.40
2018,12,12,10,53,987.44
2018,12,12,10,54,987.47
2018,12,12,10,55,987.44
2018,12,12,10,56,987.47
2018,12,12,10,57,987.51
2018,12,12,10,58,987.54
2018,12,12,10,59,987.54
2018,12,12,11,00,987.54
2018,12,12,11,01,987.57
2018,12,12,11,02,987.57
2018,12,12,11,03,987.57
2018,12,12,11,04,987.61
2018,12,12,11,05,987.64
2018,12,12,11,06,987.67
2018,12,12,11,07,987.64
2018,12,12,11,08,987.64
2018,12,12,11,09,987.71
2018,12,12,11,10,987.67
2018,12,12,11,11,987.71
2018,12,12,11,12,987.67
2018,12,12,11,13,987.67
2018,12,12,11,14,987.67
2018,12,12,11,15,987.67
2018,12,12,11,16,987.67
2018,12,12,11,17,987.71
2018,12,12,11,18,987.71
2018,12,12,11,19,987.67
2018,12,12,11,20,987.64
2018,12,12,11,21,987.61
2018,12,12,11,22,987.64
2018,12,12,11,23,987.64
2018,12,12,11,24,987.64
2018,12,12,11,25,987.61
2018,12,12,11,26,987.67
2018,12,12,11,27,987.67
2018,12,12,11,28,987.61
2018,12,12,11,29,987.64
2018,12,12,11,30,987.64
2018,12,12,11,31,987.61
2018,12,12,11,32,987.67
2018,12,12,11,33,987.64
2018,12,12,11,34,987.64
2018,12,12,11,35,987.64
2018,12,12,11,36,987.61
2018,12,12,11,37,987.61
2018,12,12,11,38,987.57
2018,12,12,11,39,987.57
2018,12,12,11,40,987.57
2018,12,12,11,41,987.57
2018,12,12,11,42,987.54
2018,12,12,11,43,987.54
2018,12,12,11,44,987.54
2018,12,12,11,45,987.57
2018,12,12,11,46,987.57
2018,12,12,11,47,987.57
2018,12,12,11,48,987.54
2018,12,12,11,49,987.57
2018,12,12,11,50,987.54
2018,12,12,11,51,987.57
2018,12,12,11,52,987.57
2018,12,12,11,53,987.64
2018,12,12,11,54,987.57
2018,12,12,11,55,987.57
2018,12,12,11,56,987.57
2018,12,12,11,57,987.64
2018,12,12,11,58,987.57
2018,12,12,11,59,987.61
2018,12,12,12,00,987.61
2018,12,12,12,01,987.61
2018,12,12,12,02,987.64
2018,12,12,12,03,987.74
2018,12,12,12,04,987.67
2018,12,12,12,05,987.67
2018,12,12,12,06,987.71
2018,12,12,12,07,987.64
2018,12,12,12,08,987.67
2018,12,12,12,09,987.67
2018,12,12,12,10,987.64
2018,12,12,12,11,987.71
2018,12,12,12,12,987.67
2018,12,12,12,13,987.67
2018,12,12,12,14,987.74
2018,12,12,12,15,987.74
2018,12,12,12,16,987.81
2018,12,12,12,17,987.78
2018,12,12,12,18,987.81
2018,12,12,12,19,987.81
2018,12,12,12,20,987.84
2018,12,12,12,21,987.84
2018,12,12,12,22,987.84
2018,12,12,12,23,987.88
2018,12,12,12,24,987.88
2018,12,12,12,25,987.95
2018,12,12,12,26,987.95
2018,12,12,12,27,987.95
2018,12,12,12,28,987.95
2018,12,12,12,29,988.01
2018,12,12,12,30,988.01
2018,12,12,12,31,988.08
2018,12,12,12,32,988.08
2018,12,12,12,33,988.08
2018,12,12,12,34,988.11
2018,12,12,12,35,988.08
2018,12,12,12,36,988.11
2018,12,12,12,37,988.11
2018,12,12,12,38,988.18
2018,12,12,12,39,988.18
2018,12,12,12,40,988.22
2018,12,12,12,41,988.25
2018,12,12,12,42,988.22
2018,12,12,12,43,988.22
2018,12,12,12,44,988.22
2018,12,12,12,45,988.22
2018,12,12,12,46,988.22
2018,12,12,12,47,988.25
2018,12,12,12,48,988.25
2018,12,12,12,49,988.25
2018,12,12,12,50,988.25
2018,12,12,12,51,988.28
2018,12,12,12,52,988.25
2018,12,12,12,53,988.28
2018,12,12,12,54,988.28
2018,12,12,12,55,988.32
2018,12,12,12,56,988.35
2018,12,12,12,57,988.32
2018,12,12,12,58,988.32
2018,12,12,12,59,988.35
2018,12,12,13,00,988.35
2018,12,12,13,01,988.32
2018,12,12,13,02,988.35
2018,12,12,13,03,988.39
2018,12,12,13,04,988.39
2018,12,12,13,05,988.39
2018,12,12,13,06,988.42
2018,12,12,13,07,988.45
2018,12,12,13,08,988.45
2018,12,12,13,09,988.42
2018,12,12,13,10,988.45
2018,12,12,13,11,988.45
2018,12,12,13,12,988.49
2018,12,12,13,13,988.45
2018,12,12,13,14,988.49
2018,12,12,13,15,988.45
2018,12,12,13,16,988.49
2018,12,12,13,17,988.55
2018,12,12,13,18,988.52
2018,12,12,13,19,988.52
2018,12,12,13,20,988.59
2018,12,12,13,21,988.55
2018,12,12,13,22,988.55
2018,12,12,13,23,988.52
2018,12,12,13,24,988.52
2018,12,12,13,25,988.55
2018,12,12,13,26,988.62
2018,12,12,13,27,988.62
2018,12,12,13,28,988.62
2018,12,12,13,29,988.55
2018,12,12,13,30,988.55
2018,12,12,13,31,988.59
2018,12,12,13,32,988.62
2018,12,12,13,33,988.66
2018,12,12,13,34,988.69
2018,12,12,13,35,988.72
2018,12,12,13,36,988.72
2018,12,12,13,37,988.76
2018,12,12,13,38,988.72
2018,12,12,13,39,988.76
2018,12,12,13,40,988.83
2018,12,12,13,41,988.79
2018,12,12,13,42,988.89
2018,12,12,13,43,988.83
2018,12,12,13,44,988.93
2018,12,12,13,45,988.93
2018,12,12,13,46,988.93
2018,12,12,13,47,989.00
2018,12,12,13,48,989.00
2018,12,12,13,49,989.00
2018,12,12,13,50,988.96
2018,12,12,13,51,988.96
2018,12,12,13,52,988.93
2018,12,12,13,53,988.93
2018,12,12,13,54,988.96
2018,12,12,13,55,988.96
2018,12,12,13,56,988.96
2018,12,12,13,57,989.00
2018,12,12,13,58,988.96
2018,12,12,13,59,988.96
2018,12,12,14,00,989.00
2018,12,12,14,01,989.03
2018,12,12,14,02,989.03
2018,12,12,14,03,989.00
2018,12,12,14,04,989.06
2018,12,12,14,05,988.96
2018,12,12,14,06,989.00
2018,12,12,14,07,989.00
2018,12,12,14,08,988.96
2018,12,12,14,09,989.03
2018,12,12,14,10,989.06
2018,12,12,14,11,989.10
2018,12,12,14,12,989.10
2018,12,12,14,13,989.10
2018,12,12,14,14,989.13
2018,12,12,14,15,989.16
2018,12,12,14,16,989.16
2018,12,12,14,17,989.16
2018,12,12,14,18,989.20
2018,12,12,14,19,989.20
2018,12,12,14,20,989.23
2018,12,12,14,21,989.23
2018,12,12,14,22,989.23
2018,12,12,14,23,989.23
2018,12,12,14,24,989.27
2018,12,12,14,25,989.27
2018,12,12,14,26,989.23
2018,12,12,14,27,989.30
2018,12,12,14,28,989.27
2018,12,12,14,29,989.27
2018,12,12,14,30,989.33
2018,12,12,14,31,989.33
2018,12,12,14,32,989.33
2018,12,12,14,33,989.33
2018,12,12,14,34,989.30
2018,12,12,14,35,989.30
2018,12,12,14,36,989.27
2018,12,12,14,37,989.27
2018,12,12,14,38,989.23
2018,12,12,14,39,989.30
2018,12,12,14,40,989.27
2018,12,12,14,41,989.30
2018,12,12,14,42,989.27
2018,12,12,14,43,989.30
2018,12,12,14,44,989.27
2018,12,12,14,45,989.33
2018,12,12,14,46,989.33
2018,12,12,14,47,989.37
2018,12,12,14,48,989.37
2018,12,12,14,49,989.37
2018,12,12,14,50,989.37
2018,12,12,14,51,989.47
2018,12,12,14,52,989.47
2018,12,12,14,53,989.50
2018,12,12,14,54,989.54
2018,12,12,14,55,989.54
2018,12,12,14,56,989.54
2018,12,12,14,57,989.57
2018,12,12,14,58,989.54
2018,12,12,14,59,989.57
2018,12,12,15,00,989.54
2018,12,12,15,01,989.57
2018,12,12,15,02,989.54
2018,12,12,15,03,989.57
2018,12,12,15,04,989.50
2018,12,12,15,05,989.50
2018,12,12,15,06,989.50
2018,12,12,15,07,989.54
2018,12,12,15,08,989.57
2018,12,12,15,09,989.54
2018,12,12,15,10,989.54
2018,12,12,15,11,989.54
2018,12,12,15,12,989.57
2018,12,12,15,13,989.57
2018,12,12,15,14,989.60
2018,12,12,15,15,989.60
2018,12,12,15,16,989.64
2018,12,12,15,17,989.67
2018,12,12,15,18,989.71
2018,12,12,15,19,989.71
2018,12,12,15,20,989.67
2018,12,12,15,21,989.67
2018,12,12,15,22,989.71
2018,12,12,15,23,989.71
2018,12,12,15,24,989.74
2018,12,12,15,25,989.71
2018,12,12,15,26,989.74
2018,12,12,15,27,989.74
2018,12,12,15,28,989.77
2018,12,12,15,29,989.81
2018,12,12,15,30,989.77
2018,12,12,15,31,989.74
2018,12,12,15,32,989.81
2018,12,12,15,33,989.81
2018,12,12,15,34,989.77
2018,12,12,15,35,989.74
2018,12,12,15,36,989.77
2018,12,12,15,37,989.77
2018,12,12,15,38,989.74
2018,12,12,15,39,989.74
2018,12,12,15,40,989.74
2018,12,12,15,41,989.74
2018,12,12,15,42,989.74
2018,12,12,15,43,989.74
2018,12,12,15,44,989.74
2018,12,12,15,45,989.77
2018,12,12,15,46,989.74
2018,12,12,15,47,989.77
2018,12,12,15,48,989.77
2018,12,12,15,49,989.81
2018,12,12,15,50,989.77
2018,12,12,15,51,989.81
2018,12,12,15,52,989.81
2018,12,12,15,53,989.84
2018,12,12,15,54,989.84
2018,12,12,15,55,989.84
2018,12,12,15,56,989.88
2018,12,12,15,57,989.91
2018,12,12,15,58,989.88
2018,12,12,15,59,989.91
2018,12,12,16,00,989.88
2018,12,12,16,01,990.03
2018,12,12,16,02,990.01
2018,12,12,16,03,990.01
2018,12,12,16,04,989.94
2018,12,12,16,05,990.01
2018,12,12,16,06,990.01
2018,12,12,16,07,990.01
2018,12,12,16,08,990.01
2018,12,12,16,09,990.01
2018,12,12,16,10,989.98
2018,12,12,16,11,990.04
2018,12,12,16,12,990.01
2018,12,12,16,13,990.01
2018,12,12,16,14,990.01
2018,12,12,16,15,990.04
2018,12,12,16,16,990.01
2018,12,12,16,17,990.04
2018,12,12,16,18,990.01
2018,12,12,16,19,990.08
2018,12,12,16,20,990.08
2018,12,12,16,21,990.11
2018,12,12,16,22,990.11
2018,12,12,16,23,990.18
2018,12,12,16,24,990.15
2018,12,12,16,25,990.18
2018,12,12,16,26,990.18
2018,12,12,16,27,990.15
2018,12,12,16,28,990.18
2018,12,12,16,29,990.18
2018,12,12,16,30,990.18
2018,12,12,16,31,990.18
2018,12,12,16,32,990.18
2018,12,12,16,33,990.15
2018,12,12,16,34,990.11
2018,12,12,16,35,990.08
2018,12,12,16,36,990.04